GFSGL_850_spd_111.txt.gz
Wind_Speed
21 21 16 16 20 17 13 8 6 9 7 10 13 13 12 10 8 9 7 8 4 2 3 10 7 9 6 3 5 7 6 5 6 5 4 7 9 13 10 9 13 10 14
21 22 19 15 15 13 12 11 9 8 8 7 12 14 12 13 12 7 6 8 7 2 1 5 5 5 7 6 3 4 4 4 7 8 8 10 15 12 6 5 9 11 7
24 26 22 21 18 15 15 11 12 11 8 8 11 11 12 12 9 4 2 8 6 4 4 5 4 4 5 5 6 5 6 8 8 8 9 9 12 7 13 8 11 14 13
29 27 28 22 21 18 16 15 13 15 12 10 12 10 10 10 9 7 7 4 10 7 5 5 7 7 8 8 7 7 9 8 6 6 8 11 11 14 16 18 17 17 16
30 30 30 29 25 25 22 18 19 18 14 14 11 12 12 11 10 9 10 8 7 11 11 8 9 7 8 9 11 12 13 10 8 7 8 11 12 15 18 18 19 20 18
31 33 30 28 28 21 25 20 22 17 18 17 13 12 15 14 13 10 11 14 11 10 11 8 14 12 11 9 8 8 8 9 9 9 10 12 14 15 16 19 17 16 18
34 33 29 26 21 24 25 25 23 23 24 15 17 17 14 11 13 13 11 13 14 14 14 10 14 16 11 10 10 11 12 9 8 9 10 11 13 11 11 9 10 11 13
30 31 28 24 18 17 21 21 18 16 18 20 22 15 12 12 12 13 14 15 17 18 18 17 15 13 13 13 13 13 12 11 9 10 12 6 5 5 6 9 10 9 5
24 23 24 18 14 14 13 16 16 16 15 18 18 18 21 16 11 11 8 10 11 12 14 14 13 13 13 12 8 8 8 6 5 3 1 1 4 6 5 5 8 12 13
15 14 14 14 12 12 14 15 16 16 15 15 15 13 16 16 11 8 6 10 10 8 6 8 9 9 8 7 7 6 4 3 1 5 3 5 6 3 3 6 9 12 14
17 16 15 14 13 10 9 9 9 12 13 14 15 15 12 11 10 9 9 9 9 6 5 3 2 3 4 5 6 7 6 5 5 5 4 6 3 2 1 3 7 9 8
19 19 19 16 13 11 11 10 8 10 13 12 12 12 11 11 10 7 9 7 6 5 6 5 4 5 5 6 8 7 8 8 9 10 11 8 5 6 7 9 6 5 5
15 16 14 14 14 13 11 11 10 8 9 10 12 12 11 11 9 9 11 11 11 11 10 8 8 10 9 11 11 10 10 10 11 11 10 9 9 10 11 10 10 7 9
14 15 14 12 10 9 12 10 11 12 11 10 8 5 5 6 7 8 8 8 8 8 9 10 10 10 10 10 10 10 8 9 7 6 5 5 6 7 8 10 11 10 8
13 12 9 9 9 8 9 11 10 11 10 8 8 10 7 5 3 5 5 7 9 9 11 12 10 10 10 10 10 10 9 7 5 4 4 4 4 3 5 6 8 9 11
9 8 7 5 3 1 3 4 4 4 7 8 10 10 9 8 8 10 12 14 12 11 9 8 5 5 3 4 4 5 4 3 4 3 3 4 5 6 6 7 10 13 14
7 8 9 8 6 1 3 2 6 10 9 11 14 13 13 15 17 18 16 12 8 7 8 6 5 6 6 7 6 5 4 1 2 3 4 5 6 6 8 9 11 14 15
8 9 8 4 4 5 2 2 4 5 4 4 6 10 15 14 12 10 8 6 9 11 11 10 9 9 11 11 10 9 7 3 3 5 5 5 6 7 8 10 12 14 16
3 9 10 13 9 8 7 6 1 4 6 5 8 8 7 7 6 5 7 10 11 10 11 12 12 12 12 12 10 9 7 5 5 5 6 6 7 8 9 11 12 13 15
2 6 9 9 10 10 11 10 12 5 1 3 4 4 2 2 5 9 12 9 6 11 13 12 13 13 12 11 7 7 6 7 6 5 6 7 8 9 9 10 12 13 15
3 3 7 10 12 10 10 14 13 14 6 8 7 5 5 3 5 8 7 13 10 10 13 13 14 14 12 9 7 7 8 9 6 5 6 7 8 8 9 10 10 11 11
9 7 6 7 10 12 10 12 8 11 13 7 10 12 11 10 9 8 10 11 15 16 16 15 15 11 10 8 7 8 9 9 6 6 7 8 9 9 9 9 9 9 10
14 10 10 8 9 10 11 9 14 16 14 15 7 8 12 14 13 15 12 15 16 18 17 15 13 12 12 9 6 7 10 7 5 8 8 9 9 9 8 8 9 9 10
16 13 11 16 15 13 11 10 8 10 13 11 12 18 16 14 10 16 13 14 15 15 14 9 12 12 12 11 9 8 5 6 8 10 10 11 11 10 9 10 10 10 13
19 17 19 15 21 17 14 11 14 13 12 13 15 13 13 13 9 14 16 17 17 16 17 15 11 12 13 11 11 9 9 6 10 10 12 13 13 13 12 12 13 12 13
18 21 21 20 19 15 18 17 18 18 18 16 17 18 20 19 19 19 21 21 18 18 15 14 12 10 9 6 8 8 3 9 12 15 16 15 15 15 15 14 11 11 14

GFSGL_850_spd_114.txt.gz
Wind_Speed
21 24 23 22 21 19 15 11 8 8 9 11 15 14 14 12 9 10 7 10 8 7 4 7 8 7 8 7 4 7 8 7 8 8 5 9 6 4 7 7 8 7 4
24 22 24 22 22 20 19 15 12 9 10 8 15 15 14 11 12 11 10 11 12 8 7 4 3 7 9 6 6 7 8 7 8 7 8 7 4 5 7 5 8 8 11
25 23 24 23 22 22 19 17 14 12 12 10 11 14 14 13 14 12 10 9 11 11 7 5 3 2 2 2 4 6 4 6 9 11 9 8 9 10 10 12 12 12 11
25 26 27 25 23 18 17 15 13 10 10 11 9 10 11 15 15 13 11 6 10 9 8 10 9 7 5 5 6 7 8 8 8 8 8 9 11 11 13 14 11 12 10
27 27 29 28 24 24 21 22 20 19 15 10 10 13 13 13 14 15 13 9 8 10 13 11 11 9 10 8 7 9 9 7 7 8 9 9 9 10 11 13 14 9 6
29 32 32 28 27 24 27 22 24 24 23 19 16 15 16 15 16 12 13 13 12 9 12 14 13 10 8 9 8 7 6 7 9 9 8 7 7 10 8 7 8 8 11
30 36 32 29 29 28 25 25 20 26 22 22 21 17 15 17 17 14 13 12 13 13 11 11 11 10 12 10 11 11 11 10 9 8 7 8 6 5 3 4 6 7 8
34 31 31 27 28 30 25 23 25 25 25 26 23 22 17 20 16 14 14 15 14 14 15 15 14 13 12 11 12 11 10 9 7 8 8 6 5 5 7 8 7 8 6
30 27 25 26 32 25 21 22 22 23 21 20 20 18 21 22 17 16 11 12 12 12 13 14 13 12 12 11 11 10 7 6 6 7 5 6 8 8 8 6 8 12 12
25 21 19 23 26 18 16 14 12 14 15 14 15 16 18 20 21 16 14 10 12 10 9 10 12 12 11 10 9 8 7 6 6 6 5 5 5 5 7 8 9 13 14
24 24 25 19 17 15 14 14 13 14 14 14 15 15 13 14 16 14 12 12 13 12 8 6 6 7 9 8 6 6 6 6 7 9 9 8 7 7 5 7 11 13 12
14 14 13 13 13 13 12 12 10 10 12 15 14 12 12 10 10 10 9 8 9 8 8 7 5 4 5 5 4 4 4 5 7 9 11 11 10 6 3 6 9 10 11
19 18 16 16 16 16 12 12 10 12 13 13 13 11 10 10 9 10 11 11 9 8 8 8 8 8 8 8 7 7 7 9 12 12 12 12 11 9 7 6 7 8 9
11 11 13 14 16 18 18 17 16 16 15 15 15 14 10 6 7 9 9 9 9 9 9 10 9 9 10 11 10 9 10 11 10 9 8 7 7 7 7 6 5 7 7
11 12 11 10 9 5 8 12 12 14 15 14 13 11 8 4 6 7 7 7 7 8 10 11 11 10 10 11 10 9 9 9 8 7 7 6 5 5 4 3 5 5 5
8 8 6 6 6 6 3 1 3 5 6 7 9 12 8 7 7 6 6 9 11 12 13 13 11 9 8 8 8 7 5 6 6 6 6 5 4 4 3 3 6 7 9
8 8 6 7 8 6 4 2 5 7 6 5 7 7 9 11 11 13 16 17 12 10 11 12 10 8 7 7 7 5 4 5 5 5 4 3 3 4 4 5 7 8 10
3 4 3 3 3 0 2 3 3 2 3 5 7 6 10 14 15 14 13 11 10 11 12 12 9 7 7 7 8 7 6 7 7 6 5 4 4 5 6 7 8 9 9
2 4 4 4 2 1 3 3 3 4 4 5 5 5 4 5 6 7 8 9 11 13 14 13 11 9 9 11 11 12 10 8 7 5 5 5 6 7 8 8 8 9 10
2 4 6 6 7 6 7 8 8 9 8 7 7 4 5 7 6 7 10 12 13 13 13 12 11 11 10 10 10 11 10 8 6 5 5 5 7 7 8 7 7 8 8
2 2 4 6 8 8 9 10 11 12 9 8 8 5 4 5 6 7 9 8 6 10 11 10 12 12 13 13 12 11 10 9 7 6 5 6 7 7 8 8 7 7 7
8 6 5 5 5 7 7 8 9 11 12 13 10 7 8 7 7 9 10 14 10 11 11 13 14 14 13 11 10 10 10 8 6 6 7 7 6 7 6 5 6 6 8
11 12 11 7 4 4 6 8 10 11 14 14 14 8 8 7 11 12 11 14 12 11 13 17 17 16 13 10 9 9 9 8 6 6 7 7 7 7 7 7 7 8 9
12 12 14 14 11 10 10 10 9 10 10 10 12 11 11 15 16 14 13 14 14 14 13 14 12 12 12 11 8 7 6 5 4 6 6 7 8 9 10 10 10 11 11
16 15 15 17 17 15 15 18 17 12 13 12 10 15 16 13 14 14 12 18 16 16 15 14 13 11 12 13 9 6 5 2 3 5 8 9 10 11 11 12 12 11 9
17 18 18 19 22 21 21 17 21 18 17 15 16 14 15 16 16 17 15 14 17 18 16 15 12 10 8 4 2 3 4 1 4 6 9 11 12 13 13 13 13 12 10

GFSGL_850_spd_120.txt.gz
Wind_Speed
25 26 26 27 25 22 20 16 15 12 12 13 15 18 16 17 15 13 13 13 11 11 10 10 11 11 8 8 8 8 9 9 9 9 6 5 6 8 8 9 10 10 11
22 21 23 23 25 25 21 17 16 14 12 12 17 17 17 18 17 16 13 11 10 12 10 10 8 9 10 10 9 9 10 9 10 10 8 8 8 9 10 13 14 13 11
28 24 22 22 23 25 23 20 18 16 14 12 11 12 17 17 17 17 15 13 12 13 13 12 9 9 8 8 8 8 8 6 7 9 9 9 8 9 8 9 8 6 5
32 29 27 25 23 23 22 22 22 20 18 16 14 13 13 17 18 19 17 15 14 15 15 14 13 13 12 10 10 9 9 9 11 12 10 9 9 9 9 8 4 1 4
38 35 33 29 26 23 22 22 21 22 21 19 17 15 13 15 17 19 17 14 16 15 17 14 13 13 12 11 12 12 10 11 9 8 9 9 10 9 9 5 4 1 6
40 38 38 34 30 27 23 22 21 21 21 20 19 17 17 17 17 14 14 14 17 16 14 13 14 15 14 14 11 11 10 8 7 8 9 9 9 8 6 3 2 3 2
32 35 36 34 34 28 25 25 25 24 23 23 21 24 20 19 17 13 12 14 13 16 16 14 14 13 14 13 12 14 13 12 11 11 9 9 9 8 5 3 4 4 4
28 30 33 32 31 28 28 26 26 26 26 25 22 21 22 22 21 13 11 13 14 14 15 17 17 15 15 15 16 14 14 14 12 11 10 9 9 6 5 5 4 3 4
28 31 36 30 27 22 25 27 27 24 21 18 22 19 22 26 28 21 15 9 6 9 13 14 16 16 16 16 16 15 15 14 13 10 9 8 6 6 6 5 4 3 5
15 5 17 27 14 14 20 26 30 31 25 20 22 19 22 22 29 30 20 17 17 11 11 12 13 13 9 12 13 14 15 13 12 9 7 6 6 6 6 5 5 6 7
6 10 5 13 10 10 14 16 17 20 25 22 18 18 22 21 17 21 21 20 16 13 12 13 15 13 16 15 12 12 11 11 10 9 8 8 8 8 9 10 11 10 10
3 6 13 6 0 2 6 1 2 7 8 13 15 12 7 7 5 6 7 10 11 13 14 14 12 11 9 8 8 9 9 10 9 10 10 11 12 13 13 13 13 10 8
9 13 13 7 5 5 7 6 7 7 8 8 8 8 10 9 7 7 7 9 10 12 12 11 10 9 8 9 9 6 8 8 9 12 14 15 15 17 16 13 11 9 7
8 9 6 14 10 8 9 13 12 13 13 14 15 15 11 11 11 7 7 8 11 11 11 10 10 9 8 7 7 9 10 10 11 14 15 16 15 13 12 11 10 9 7
9 10 9 8 7 8 7 10 12 13 14 14 14 13 12 10 10 9 7 7 7 7 8 10 10 10 10 9 10 10 10 10 11 12 11 12 11 10 10 10 9 7 6
10 9 10 11 11 10 10 8 7 6 2 1 4 6 9 7 7 9 8 5 4 2 7 10 11 12 11 10 10 9 9 9 8 7 7 8 8 7 8 7 6 6 5
11 12 12 12 11 11 10 9 8 6 6 6 7 6 2 3 2 1 4 6 7 7 10 11 13 13 11 8 6 4 4 5 4 5 5 6 7 6 6 6 6 5 4
9 10 8 8 8 9 9 9 9 10 10 9 7 6 5 4 4 6 8 9 11 9 10 10 8 9 9 5 4 4 4 5 6 6 6 6 6 6 5 5 4 3 3
4 4 5 5 6 6 5 4 5 6 5 5 4 4 4 5 6 5 4 4 4 4 6 7 8 9 10 4 4 5 6 6 5 5 5 7 6 6 6 6 5 4 4
3 3 2 2 3 3 4 5 6 5 4 3 2 2 3 6 6 6 7 7 7 6 4 4 5 8 7 6 5 8 9 8 6 6 6 7 7 7 6 5 5 4 4
3 3 3 3 2 2 3 4 5 5 5 4 4 5 6 6 5 5 6 7 5 4 5 8 11 10 8 7 9 11 11 10 9 8 7 8 7 6 6 6 5 4 3
5 5 4 2 1 0 1 2 3 4 4 4 4 5 6 7 6 4 4 8 5 2 5 6 7 7 8 11 11 11 11 11 10 9 9 9 8 6 6 6 5 5 4
10 10 9 8 6 5 3 2 1 1 2 4 5 5 5 6 9 9 6 7 7 4 6 6 5 5 7 9 9 8 9 9 9 9 9 8 8 6 5 5 5 4 4
12 12 11 10 10 10 10 9 8 8 6 4 4 5 5 6 6 10 11 9 6 5 10 10 8 8 8 9 7 8 7 8 9 8 7 6 5 5 4 4 3 4 5
11 10 10 11 12 11 11 12 12 11 11 12 12 10 8 8 8 8 10 9 8 7 8 13 12 10 10 8 7 8 9 8 8 6 5 5 4 3 2 2 2 3 5
12 12 13 14 15 14 14 14 14 14 15 14 13 16 16 13 15 14 13 12 12 11 8 9 11 12 10 8 7 8 8 9 9 9 7 5 4 3 1 1 2 4 6

GFSGL_850_spd_123.txt.gz
Wind_Speed
27 27 26 25 24 23 22 17 16 17 15 13 14 15 17 15 18 17 13 14 15 14 12 11 10 10 12 10 9 9 10 10 8 8 9 9 7 6 8 9 9 9 12
23 24 25 25 23 24 24 23 20 17 16 15 14 15 17 19 17 18 15 13 13 13 13 14 12 11 11 12 11 11 9 10 9 10 9 9 9 8 9 9 5 3 11
27 24 24 24 25 24 24 24 21 19 19 16 14 13 15 17 18 18 15 15 15 15 15 16 14 12 11 10 9 9 7 9 8 8 8 9 8 7 6 6 4 2 7
31 29 28 26 25 21 21 23 23 21 21 19 17 15 15 15 17 17 17 17 17 17 16 16 16 15 13 12 10 10 9 10 10 11 10 7 6 5 3 2 2 2 2
34 33 32 30 28 28 25 22 22 24 24 22 21 19 17 15 14 16 17 18 20 18 17 12 13 16 14 12 11 11 12 11 11 9 6 6 5 4 1 1 4 4 1
35 33 34 33 34 33 31 27 24 25 26 25 24 21 19 18 15 14 16 17 18 19 18 17 18 17 16 14 13 12 10 9 9 10 9 9 9 6 4 3 4 6 2
32 31 28 27 27 32 34 32 28 27 25 24 22 22 21 20 18 15 15 17 17 16 17 18 17 16 13 14 14 13 13 12 11 11 10 10 9 8 5 3 4 5 5
24 23 20 22 27 24 27 31 31 27 28 25 24 22 24 23 25 19 19 18 15 15 15 15 17 17 14 13 14 14 13 13 12 11 10 10 10 8 6 5 5 5 6
17 24 23 23 26 29 32 35 34 29 26 27 23 21 22 22 24 24 21 18 12 10 13 14 13 14 15 15 17 17 15 14 12 11 11 10 8 7 7 6 5 5 5
20 17 15 15 12 22 23 21 24 21 26 25 20 14 13 16 16 22 34 29 22 16 10 7 9 9 9 8 9 12 14 12 12 10 8 7 6 5 5 6 7 6 6
9 8 9 8 9 10 9 8 12 19 30 26 20 16 11 13 9 19 20 24 19 22 19 21 23 19 18 18 16 16 15 14 10 8 7 7 7 6 6 7 7 9 10
4 5 5 4 4 5 8 6 6 9 13 14 13 8 9 8 8 5 8 10 23 21 15 14 14 14 15 16 14 13 11 11 10 8 8 8 8 9 9 10 11 10 10
2 2 6 3 6 2 4 5 7 8 7 10 8 5 6 5 6 6 7 8 11 13 15 15 14 12 12 10 9 9 9 7 9 10 12 13 14 13 13 13 12 11 9
2 3 1 2 7 3 7 6 6 10 10 9 7 7 8 12 11 11 12 11 11 11 13 12 12 11 11 10 8 7 9 12 14 15 15 15 14 14 13 11 10 10 9
11 9 5 3 3 4 6 6 6 5 6 8 10 10 10 9 7 8 8 8 9 8 7 6 7 9 8 7 6 6 8 10 11 12 13 13 12 11 11 10 9 9 9
11 11 11 11 12 11 9 8 8 7 6 4 3 2 1 1 2 4 5 4 4 2 1 2 5 7 7 6 6 7 8 9 10 10 10 10 10 9 10 8 7 7 7
14 15 15 15 14 13 12 12 9 7 8 9 12 9 8 9 7 4 4 3 4 5 6 5 5 9 8 7 5 4 4 5 6 6 7 8 9 9 7 7 7 7 6
12 11 10 11 11 11 12 12 13 14 12 11 10 8 6 6 4 1 1 3 4 5 7 6 7 6 5 5 2 2 4 6 6 7 8 8 8 8 7 6 7 7 5
8 9 9 8 8 8 8 7 7 7 7 6 6 6 5 5 5 3 2 2 3 3 4 7 8 9 11 11 9 7 6 7 8 9 10 10 9 8 7 7 8 7 6
7 6 5 4 4 3 4 4 4 5 4 3 2 3 1 2 3 4 4 4 4 5 8 9 9 10 10 9 6 6 7 8 8 8 9 9 10 10 8 7 6 6 6
4 4 4 4 3 3 4 5 5 5 4 3 2 1 2 2 1 3 4 5 6 6 6 7 9 11 9 8 8 8 11 13 12 12 11 11 11 11 11 10 9 9 7
3 3 3 2 1 0 1 1 2 4 5 5 5 5 4 4 4 5 5 6 8 5 5 5 6 6 7 9 11 13 13 13 13 12 12 11 11 11 10 9 9 7 6
7 8 8 7 6 5 4 4 2 2 1 2 3 4 5 6 6 7 9 9 10 8 6 7 7 6 7 8 10 11 11 10 11 11 10 10 10 10 9 8 7 6 6
9 9 11 10 10 10 10 9 8 8 7 7 6 6 6 6 6 6 7 11 10 9 9 12 11 8 9 9 11 10 11 11 10 10 10 10 9 9 8 7 7 6 6
13 11 11 11 11 11 11 11 11 11 10 10 12 13 13 12 11 10 9 9 10 11 11 11 14 14 12 12 12 10 11 11 11 10 9 9 9 8 7 6 6 5 5
12 13 13 14 13 13 13 14 12 12 11 11 12 15 17 15 18 18 16 16 15 14 15 14 13 13 14 14 13 12 11 11 10 11 10 9 8 7 7 6 5 5 5

GFSGL_850_spd_126.txt.gz
Wind_Speed
19 19 19 18 18 17 17 15 13 13 14 15 13 12 13 13 13 13 14 13 12 12 11 11 11 11 8 9 9 9 8 9 10 8 7 9 7 6 8 5 4 13 10
19 19 19 19 19 18 19 18 17 18 16 14 13 13 14 15 14 16 14 12 12 12 11 12 12 10 13 10 10 11 9 9 9 9 9 7 6 6 7 5 1 12 9
18 18 18 19 19 19 18 18 19 20 19 16 17 16 14 14 16 13 16 15 13 13 13 12 12 12 12 10 11 10 7 9 7 6 7 5 6 5 7 4 2 9 9
19 19 19 18 18 17 17 17 17 18 21 20 19 19 17 15 14 15 15 15 14 14 14 14 13 14 14 14 11 12 10 11 9 9 8 6 5 8 5 8 2 5 6
25 20 18 17 19 18 17 17 18 18 19 21 21 21 20 17 14 14 14 16 16 15 15 15 13 15 14 14 14 12 14 13 10 10 8 7 8 7 7 6 10 7 6
24 23 19 23 24 25 25 25 22 23 21 20 19 19 19 17 19 17 16 15 14 15 14 14 14 15 17 15 14 13 13 12 11 9 9 9 8 7 8 7 9 10 8
19 22 30 28 26 23 25 24 26 28 25 22 22 19 19 19 20 18 17 16 15 13 15 16 15 13 13 13 14 15 15 14 14 13 12 9 8 8 9 8 9 8 8
13 18 19 19 19 22 22 26 24 24 28 34 26 22 21 20 21 21 21 22 19 16 15 17 14 15 16 14 12 11 13 14 14 13 14 12 10 10 9 9 11 10 10
7 8 9 11 12 16 21 22 23 24 27 27 31 30 24 23 21 21 22 27 26 20 18 17 15 12 18 16 13 13 14 15 14 14 15 15 15 13 12 8 9 9 10
9 9 8 9 10 12 15 18 19 22 22 23 24 30 28 25 20 20 21 20 21 18 11 9 8 8 7 9 9 8 8 10 11 12 12 12 11 10 9 11 6 8 9
8 8 7 7 8 11 11 10 10 10 12 15 19 24 24 23 15 11 14 18 24 32 24 18 15 12 17 16 18 15 13 13 12 11 9 8 8 8 9 10 10 9 6
6 7 7 5 5 8 7 7 11 10 11 15 14 10 7 7 11 10 8 8 12 18 18 14 16 17 16 15 14 13 10 9 9 9 9 9 7 8 8 10 11 12 12
8 8 6 4 2 2 7 1 2 3 2 4 5 6 9 10 11 11 10 10 10 12 17 14 14 14 14 14 9 5 5 7 10 9 8 8 9 11 12 12 13 13 12
7 6 5 5 6 2 2 3 3 4 5 5 6 6 6 8 9 9 9 11 12 11 12 13 13 11 8 7 7 7 7 8 9 11 11 13 12 13 12 12 9 8 5
9 7 8 7 7 3 3 4 4 3 3 4 6 6 7 7 7 9 12 11 10 7 7 6 7 8 8 5 5 3 4 2 2 2 2 2 5 5 7 7 6 6 6
12 12 13 11 11 10 10 9 7 5 4 3 3 3 2 3 0 1 2 2 4 3 0 4 2 0 0 2 3 3 3 2 1 0 1 3 2 2 4 5 5 4 4
15 15 15 14 13 13 12 11 8 9 10 10 9 9 10 9 8 5 5 4 0 3 3 2 5 5 5 7 7 6 2 5 6 5 6 8 6 6 4 3 4 4 3
11 12 12 11 10 9 10 13 12 10 9 9 8 8 8 8 8 5 3 3 4 4 5 5 5 6 8 11 10 9 6 6 5 5 4 7 8 8 8 5 3 4 3
9 8 8 8 9 8 7 7 6 6 6 5 6 5 5 5 5 4 4 4 4 4 4 5 7 7 8 9 9 8 7 9 8 7 7 6 7 4 5 4 7 8 8
7 7 6 6 5 5 5 5 5 5 4 4 3 2 2 5 4 4 4 5 5 6 6 6 5 6 6 7 7 7 5 6 6 6 7 5 7 8 6 6 6 5 4
3 4 5 4 5 4 5 5 5 5 4 4 1 0 1 1 2 2 3 4 5 6 6 5 6 6 7 9 7 6 6 7 9 7 6 7 9 7 6 6 8 6 6
2 2 2 2 1 2 2 3 3 3 4 3 1 3 3 2 3 4 4 5 6 7 5 4 3 4 6 7 6 6 9 9 9 8 7 7 7 6 7 6 6 6 5
4 4 4 4 4 5 3 3 2 1 1 1 2 2 3 3 3 4 5 6 7 7 6 4 5 6 6 6 7 8 9 10 9 8 7 7 7 7 7 6 6 6 6
8 7 7 7 7 7 7 6 6 6 5 5 6 6 6 7 7 8 8 8 8 8 8 8 8 9 9 9 9 8 8 8 7 8 8 8 7 9 7 7 7 7 7
11 11 10 9 9 7 8 8 8 7 7 8 8 10 11 12 12 12 12 12 12 12 11 11 10 11 12 12 11 9 13 15 11 10 8 8 8 9 8 8 8 7 7
12 12 12 11 10 10 10 10 10 10 10 9 8 9 11 13 13 13 13 14 16 15 16 15 15 15 15 14 14 14 15 14 13 10 9 9 9 8 8 8 9 7 8

GFSGL_850_spd_129.txt.gz
Wind_Speed
16 16 17 18 18 16 14 14 12 11 11 11 11 10 10 11 12 12 12 14 11 10 11 14 11 12 11 10 12 8 10 10 13 10 9 6 10 5 6 5 8 13 11
15 16 16 17 17 16 15 14 12 12 12 12 12 10 10 10 11 13 13 12 13 11 11 13 13 11 13 13 10 13 11 12 10 14 13 11 6 5 6 2 1 10 11
17 16 16 16 16 15 15 14 14 14 14 13 13 14 13 11 10 11 13 12 13 14 13 14 14 12 17 14 15 11 10 11 8 10 11 11 9 6 7 3 6 13 10
17 17 16 15 14 14 14 14 13 13 14 14 14 16 14 13 12 11 11 12 14 14 14 15 14 14 18 17 15 13 14 13 14 13 13 12 14 11 7 10 7 5 4
19 18 17 15 14 13 13 13 12 13 13 13 14 15 16 12 13 14 13 13 15 13 14 16 15 16 18 19 16 13 14 16 12 13 12 14 16 12 7 10 10 10 8
26 22 16 16 15 20 19 19 19 18 18 18 18 18 17 14 19 19 20 17 14 15 15 16 16 18 19 16 18 16 15 14 12 13 14 13 11 10 7 7 11 11 11
16 19 23 20 19 22 19 20 20 22 22 22 23 22 20 18 19 22 23 21 17 15 15 14 14 15 19 17 15 17 17 17 16 16 14 13 15 12 9 9 10 12 14
12 17 14 20 23 25 22 20 21 22 24 25 26 27 30 29 27 25 20 21 20 19 19 17 15 15 17 17 14 9 8 13 14 13 12 13 14 13 14 10 13 13 11
10 12 14 15 13 14 13 16 18 20 20 22 25 24 27 29 27 24 23 21 20 22 24 23 20 21 20 19 17 13 12 14 12 14 15 18 19 17 16 15 12 11 12
8 10 12 10 11 10 13 15 14 16 18 20 23 23 27 26 29 27 24 23 22 21 24 23 20 19 16 13 14 15 12 9 8 11 12 13 14 14 15 15 14 12 12
6 4 4 4 3 5 10 10 11 11 10 10 14 19 20 21 25 24 18 19 20 21 22 20 16 14 10 9 10 12 12 14 14 14 12 12 9 12 12 13 16 15 13
8 9 10 7 5 3 4 3 5 6 5 7 13 12 8 12 11 10 11 10 9 14 17 17 18 19 21 17 15 15 16 15 12 7 9 11 11 12 10 10 11 12 13
6 7 4 4 2 3 5 3 1 2 3 2 3 0 1 2 2 4 7 8 9 10 10 11 13 13 12 14 15 15 15 12 9 8 9 10 9 8 11 12 13 14 15
3 3 6 5 4 3 3 2 1 0 1 2 2 2 0 2 4 6 7 8 9 10 10 8 8 8 6 6 4 3 2 4 8 9 12 13 12 10 11 10 10 10 7
3 4 4 4 4 1 1 1 1 0 1 3 3 4 5 6 8 8 7 7 8 8 13 9 7 5 4 3 2 4 7 6 5 4 4 7 8 7 5 7 5 5 7
9 8 8 6 6 6 6 5 5 5 4 3 2 1 2 1 1 1 2 2 3 3 2 4 5 5 4 1 2 4 3 1 6 6 7 5 2 5 4 4 3 3 3
9 10 11 11 11 9 8 8 9 10 11 10 9 9 8 8 7 7 6 6 6 6 5 5 5 4 5 2 4 7 9 10 14 11 12 13 17 16 11 11 11 6 6
9 12 6 6 9 10 10 10 9 9 9 9 9 9 9 8 8 7 7 9 9 10 5 7 5 4 3 3 7 7 7 6 6 4 4 5 8 9 7 5 5 5 4
6 5 5 6 7 6 6 5 4 4 4 4 5 5 6 6 7 7 7 7 3 4 5 5 5 4 4 4 5 5 3 4 4 4 6 5 5 5 7 5 7 9 7
5 6 7 3 2 3 2 3 2 3 3 3 3 2 2 7 6 4 5 4 5 5 6 5 6 5 3 4 4 3 2 5 4 5 6 6 8 8 6 6 8 7 4
3 3 6 3 2 2 3 3 4 3 3 3 2 2 3 2 1 2 3 5 5 5 6 5 4 3 4 4 5 5 4 6 8 8 8 9 8 7 7 6 6 6 6
4 2 2 3 3 2 3 3 3 3 3 2 2 2 5 2 2 3 4 5 5 7 8 7 4 4 3 4 4 6 8 9 9 9 9 8 9 8 7 7 7 7 6
6 6 6 6 6 6 5 5 5 4 4 3 2 2 3 2 4 4 5 6 6 7 7 6 6 5 6 5 6 7 9 9 9 9 9 9 9 9 8 7 7 8 7
8 9 9 8 7 7 7 8 8 9 8 6 6 6 6 6 7 7 8 7 7 7 7 8 8 8 8 7 8 9 9 7 6 7 9 8 9 9 8 8 8 8 8
10 11 8 8 10 8 8 9 9 8 7 8 7 9 9 7 9 10 10 10 10 11 11 10 10 10 10 12 11 12 15 14 12 13 8 9 9 9 9 8 8 8 8
12 12 9 10 9 11 10 9 11 10 9 9 10 10 7 9 10 10 10 11 12 12 14 13 14 15 15 16 15 16 18 15 14 12 9 7 9 8 8 8 8 9 8

GFSGL_850_spd_135.txt.gz
Wind_Speed
14 19 19 18 21 22 22 19 17 14 11 8 9 6 7 10 11 8 7 7 12 12 9 10 7 6 8 11 10 11 8 6 6 3 6 8 10 8 9 11 12 9 7
14 15 18 14 17 21 22 21 17 13 10 12 9 7 8 8 10 9 5 5 6 7 6 8 8 8 9 13 11 8 6 8 9 12 14 8 3 8 9 10 13 11 11
15 15 19 18 17 17 17 14 8 11 12 11 11 12 9 8 8 9 8 7 6 7 6 7 11 10 10 11 11 11 12 12 13 12 13 10 12 9 7 10 12 15 13
19 19 19 20 18 17 17 15 14 12 14 14 14 16 15 12 10 8 9 7 5 5 7 9 10 12 13 14 12 12 12 13 13 11 13 13 13 11 12 13 8 10 13
27 27 21 18 18 18 19 18 17 18 18 18 15 12 11 11 10 11 11 9 10 11 10 13 13 12 14 12 14 16 15 14 14 14 13 14 13 15 12 9 8 15 11
25 35 24 21 19 18 18 19 18 18 17 15 14 13 14 16 16 15 14 14 13 13 15 18 17 13 11 11 12 13 15 16 16 16 14 13 13 10 9 9 10 10 15
31 28 28 27 25 19 20 20 20 18 18 18 18 18 19 18 18 17 16 15 15 14 17 18 17 14 13 13 13 13 13 15 17 18 17 16 15 15 13 11 11 11 14
25 21 24 28 24 21 21 20 18 19 20 23 24 23 20 21 21 19 18 17 18 22 17 19 16 16 16 15 15 15 17 17 15 16 16 16 13 12 11 10 10 12 13
16 15 12 8 16 19 21 20 20 17 20 20 19 20 19 19 18 18 18 18 20 19 17 16 15 17 16 17 17 16 17 17 16 13 13 10 9 11 13 14 16 16 13
3 3 7 12 12 17 19 21 21 15 14 17 17 18 17 16 16 16 16 13 14 15 15 18 20 19 18 18 18 13 14 14 14 10 8 8 7 10 11 11 10 11 10
6 6 7 13 10 12 13 10 8 10 10 10 10 9 8 9 10 10 9 7 10 10 8 12 15 15 12 11 8 3 3 3 6 4 6 8 10 12 12 11 10 8 8
12 11 11 10 10 8 8 7 8 6 3 3 3 3 1 1 3 4 3 3 2 3 3 4 3 3 3 3 4 6 8 9 11 11 12 9 9 11 11 10 11 13 12
10 7 6 8 8 7 6 7 7 6 5 4 3 2 2 4 4 4 3 2 2 2 1 1 0 1 1 2 3 7 8 7 5 6 6 3 3 4 4 4 5 7 7
7 8 8 8 8 8 7 7 5 5 6 6 6 5 3 2 2 3 3 4 5 5 4 4 2 3 3 4 4 4 2 2 3 4 5 5 3 2 3 5 7 5 5
9 8 8 9 8 7 7 7 8 9 7 4 3 1 1 1 2 3 6 7 7 6 5 4 3 3 4 6 6 6 4 4 5 7 8 5 3 4 6 9 7 6 6
10 10 10 11 11 8 7 8 8 8 7 5 4 2 4 7 10 11 13 12 12 12 10 8 7 6 5 5 5 5 5 6 6 6 6 4 4 5 5 7 8 8 6
11 10 11 10 10 11 11 10 10 13 13 12 11 11 11 11 13 15 15 15 16 14 15 15 11 11 9 7 6 6 6 7 6 6 5 5 8 7 7 7 8 9 9
16 16 16 15 14 16 15 13 13 13 14 15 14 12 12 11 11 12 13 12 9 10 11 11 12 13 12 9 8 6 6 6 6 7 7 7 8 9 7 8 7 12 7
11 9 9 10 11 10 8 10 10 12 11 11 12 13 15 15 14 12 10 14 12 11 11 12 7 7 9 11 11 9 6 7 9 7 8 8 9 13 13 9 7 9 10
11 10 12 9 12 11 5 9 6 5 8 8 9 8 7 6 7 8 7 7 3 4 6 2 2 3 3 5 6 6 7 6 7 7 12 13 12 13 13 11 9 9 11
9 13 10 8 7 7 6 7 7 5 8 7 5 7 5 5 7 5 4 8 6 10 11 10 1 4 2 4 4 4 5 3 5 7 12 10 11 13 12 12 10 7 8
5 10 12 9 6 7 6 5 9 5 4 4 3 4 8 7 5 3 1 5 3 7 8 10 8 3 6 5 5 4 4 5 5 6 4 7 10 12 12 10 10 9 8
6 9 9 12 6 6 7 9 8 6 6 4 2 2 4 4 2 4 5 2 4 6 7 9 8 6 7 4 7 4 3 8 9 11 12 14 15 12 9 10 13 10 9
8 6 6 16 12 7 4 6 11 7 7 6 4 2 2 4 1 4 2 3 3 4 4 6 8 8 9 12 13 13 12 14 15 13 15 15 18 14 10 9 8 6 11
5 6 4 8 17 10 9 10 10 11 15 13 9 7 8 11 9 5 7 8 8 9 11 12 11 13 15 10 13 21 18 17 16 15 13 15 13 13 13 10 13 12 11
4 5 7 11 14 16 14 13 13 12 11 13 12 13 9 6 7 10 9 10 11 12 13 14 16 18 18 18 12 8 14 21 20 14 17 12 10 10 12 11 10 12 12